Location: Star Dogged Moon Observatory
(29.7756°N, 82.0783°W)
Time: 01:17:55
(UTC-04:00)

ARGOS - Visible Passes

Search period start: 20 April 2018 00:00
Search period end: 30 April 2018 00:00
Orbit: 820 x 835 km, 98.6° (Epoch: 19 April)

Date Brightness Start Highest point End Pass type
(mag) Time Alt. Az. Time Alt. Az. Time Alt. Az.
20 Apr 4.6 21:25:40 19° ENE 21:25:40 19° ENE 21:29:23 10° NNE visible
20 Apr 4.7 23:07:10 32° WNW 23:07:10 32° WNW 23:10:34 10° NNW visible
21 Apr 5.0 21:06:45 12° ENE 21:07:19 13° ENE 21:09:29 10° NE visible
21 Apr 4.0 22:48:16 47° NW 22:48:16 47° NW 22:52:15 10° NNW visible
22 Apr 3.4 22:29:23 60° N 22:29:23 60° N 22:33:44 10° N visible
23 Apr 3.5 22:10:29 51° NE 22:10:29 51° NE 22:15:04 10° N visible
23 Apr 5.8 23:51:59 12° WNW 23:51:59 12° WNW 23:52:53 10° WNW visible
24 Apr 3.9 21:51:35 35° ENE 21:51:35 35° ENE 21:56:11 10° N visible
24 Apr 5.3 23:33:06 19° WNW 23:33:06 19° WNW 23:35:38 10° NW visible
25 Apr 4.4 21:32:42 23° ENE 21:32:57 23° ENE 21:37:05 10° NNE visible
25 Apr 4.7 23:14:12 30° WNW 23:14:12 30° WNW 23:17:44 10° NW visible
26 Apr 4.8 21:13:48 15° ENE 21:14:35 15° ENE 21:17:32 10° NNE visible
26 Apr 4.0 22:55:19 46° WNW 22:55:19 46° WNW 22:59:32 10° NNW visible
27 Apr 3.3 22:36:25 68° NW 22:36:25 68° NW 22:41:06 10° NNW visible
28 Apr 3.2 22:17:32 63° NE 22:17:32 63° NE 22:22:29 10° N visible
28 Apr 5.9 23:59:03 10° WNW 23:59:03 10° WNW 23:59:03 10° WNW visible
29 Apr 3.6 21:58:38 42° ENE 21:58:42 42° ENE 22:03:42 10° N visible
29 Apr 5.4 23:40:09 17° W 23:40:09 17° W 23:42:34 10° NW visible
